BGGH

Nuuk Airport

Airport
ICAO code
BGGH
Summary
ICAO Region
NAT
ICAO Territory
Location

Nuuk,

Serving
Nuuk
Elevation
283 ft
Coordinates
64° 11' 27" N , 51° 40' 41" W
KCC
Metar
Observation
BGGH 072250Z 11005KT 9999 FEW019 BKN048 M13/M16 Q1007
Station
Godthaab / Nuuk
Date/Time
2023-02-07 23:50:00
Wind direction
110°
Wind speed
05 kts
Lowest cloud amount
few clouds
Temperature
-13°C
Dew point
-16°C
Humidity
78%
QNH
1007 hPa
Weather condition
n/a

Description

International airport serving Godthaab/Nuuk, Greenland.

Climatology

Tundra Climate (Köppen climate classification ET) - average temperature below 10°C in all twelve months of the year with very little precipitation.

Runways

Designator Length Width Surface Rops
5/23 950 30 ASP No/No

Airport map

Aerial View

Airport accidents

SKYbrary Partners:

Safety knowledge contributed by: